Home   Weather   Frankfurt   Past weeks
Flag for Germany

Past Weather in Frankfurt, Hesse, Germany — Yesterday and Last 2 Weeks

Now
77 °F

Clear.


Feels Like: 78 °F
Forecast: 85 / 59 °F
Wind: 10 mph from Northeast

Location: Frankfurt-M-Flughafen Airport

Current Time: Jul 21, 2019 at 10:09:46 pm

Latest Report: Jul 21, 2019 at 9:50 pm


Visibility: 10 mi

Pressure: 30.18 "Hg

Humidity: 44%

Dew Point: 54 °F

Location of FrankfurtLocation

Past Weather in Frankfurt — Graph

°F

Frankfurt Temperature Yesterday

Maximum temperature yesterday: 90 °F (at 3:50 pm)
Minimum temperature yesterday: 57 °F (at 4:50 am)
Average temperature yesterday: 75 °F

High & Low Weather Summary for the Past Weeks

 TemperatureHumidityPressure
High90 °F (Jul 20, 3:50 pm)100% (Jul 12, 1:20 am)30.15 "Hg (Jul 12, 1:20 am)
Low45 °F (Jul 10, 4:20 am)21% (Jul 10, 5:50 pm)29.77 "Hg (Jul 6, 8:20 pm)
Average66 °F64%30.00 "Hg
* Reported Jul 6 8:20 pm — Jul 21 8:50 pm, Frankfurt. Weather by CustomWeather, © 2019

Note: Actual official high and low records may vary slightly from our data, if they occured in-between our weather recording intervals... More about our weather records

Advertising

Frankfurt Weather History for the Previous 24 Hours

Scroll right to see more
 ConditionsComfort  
Time TempWeatherWind HumidityBarometerVisibility
8:50 pm
Sun, Jul 21
77 °FSunny.7 mph47%30.15 "Hg10 mi
8:20 pm79 °FPassing clouds.7 mph45%30.15 "HgN/A
7:50 pm81 °FPassing clouds.8 mph39%30.15 "HgN/A
7:20 pm81 °FPassing clouds.8 mph39%30.15 "HgN/A
6:50 pm82 °FPassing clouds.7 mph35%30.12 "HgN/A
6:20 pm82 °FPassing clouds.7 mph30%30.12 "HgN/A
5:50 pm82 °FPassing clouds.9 mph30%30.12 "HgN/A
5:20 pm82 °FPassing clouds.13 mph30%30.12 "HgN/A
4:50 pm84 °FPassing clouds.9 mph29%30.12 "HgN/A
4:20 pm82 °FPassing clouds.13 mph30%30.12 "HgN/A
3:50 pm84 °FPassing clouds.10 mph31%30.12 "HgN/A
2:50 pm82 °FPassing clouds.12 mph32%30.12 "HgN/A
2:20 pm82 °FPassing clouds.12 mph32%30.12 "HgN/A
1:50 pm82 °FPassing clouds.15 mph32%30.12 "HgN/A
1:20 pm82 °FPassing clouds.16 mph35%30.12 "HgN/A
12:50 pm82 °FPassing clouds.14 mph37%30.12 "HgN/A
12:20 pm81 °FPassing clouds.13 mph39%30.12 "HgN/A
11:50 am79 °FPassing clouds.14 mph42%30.12 "HgN/A
11:20 am79 °FPassing clouds.14 mph45%30.12 "HgN/A
10:50 am77 °FPassing clouds.12 mph47%30.12 "HgN/A
10:20 am75 °FPassing clouds.13 mph47%30.12 "HgN/A
9:50 am75 °FPassing clouds.8 mph54%30.12 "HgN/A
9:20 am73 °FPassing clouds.6 mph61%30.09 "HgN/A
8:50 am72 °FScattered clouds.6 mph65%30.09 "HgN/A
8:20 am70 °FScattered clouds.3 mph73%30.09 "HgN/A
7:50 am68 °FPassing clouds.5 mph78%30.09 "HgN/A
7:20 am66 °FPassing clouds.5 mph83%30.07 "HgN/A
6:50 am66 °FPassing clouds.6 mph83%30.07 "HgN/A
6:20 am64 °FPassing clouds.2 mph88%30.04 "HgN/A
5:50 am64 °FPassing clouds.3 mph88%30.04 "HgN/A
5:20 am64 °FPassing clouds.3 mph88%30.04 "HgN/A
4:50 am66 °FPassing clouds.3 mph83%30.04 "HgN/A
4:20 am66 °FPassing clouds.1 mph83%30.01 "HgN/A
3:50 am66 °FPassing clouds.2 mph83%30.01 "HgN/A
3:20 am66 °FPassing clouds.3 mph83%30.01 "HgN/A
2:50 am66 °FPassing clouds.3 mph83%30.01 "HgN/A
2:20 am68 °FPassing clouds.2 mph78%30.01 "HgN/A
1:50 am68 °FPassing clouds.2 mph83%30.01 "HgN/A
1:20 am70 °FPassing clouds.3 mph73%29.98 "HgN/A
12:50 am70 °FPassing clouds.5 mph78%29.98 "HgN/A
12:20 am70 °FPassing clouds.2 mph73%29.98 "HgN/A
11:50 pm
Sat, Jul 20
73 °FPassing clouds.6 mph65%29.98 "HgN/A
11:20 pm75 °FPassing clouds.3 mph54%29.95 "HgN/A
10:50 pm75 °FPassing clouds.9 mph57%29.95 "HgN/A
10:20 pm75 °FPassing clouds.12 mph57%29.95 "HgN/A
Weather by CustomWeather, © 2019

See weather overview